Location: *
(17.3280°S, 114.7300°W)
Time: 07:06:22
(UTC+00:00)

PSLV R/B - Pass Details

Date: 05 August 2020
Orbit: 567 x 599 km, 98.2° (Epoch: 20 September)

Event Time Altitude Azimuth Distance (km) Brightness Sun altitude
Rises 13:17:43 0° 169° (S) 2,857 7.4 -11.2°
Reaches altitude 10° 13:19:54 10° 169° (S) 1,950 6.6 -10.7°
Maximum altitude 13:24:08 88° 253° (WSW) 606 4.0 -9.7°
Drops below altitude 10° 13:28:20 10° 347° (NNW) 1,928 6.6 -8.7°
Sets 13:30:29 0° 347° (NNW) 2,821 7.5 -8.2°
